Location: Proctor
(47.8934°N, 114.3048°W)
Time: 01:51:57
(UTC+00:00)

CAS-6 - Pass Details

Date: 03 July 2022
Orbit: 613 x 634 km, 97.9° (Epoch: 15 August)

Event Time Altitude Azimuth Distance (km) Brightness Sun altitude
Exits shadow 06:03:46 25° 184° (S) 1,275 ? -15.8°
Maximum altitude 06:06:13 62° 258° (WSW) 704 ? -16.0°
Drops below altitude 10° 06:10:32 10° 340° (NNW) 2,002 ? -16.3°
Sets 06:12:45 0° 344° (NNW) 2,909 ? -16.4°
